TimePST,TemperatureF,Dew PointF,Humidity,Sea Level PressureIn,VisibilityMPH,Wind Direction,Wind SpeedMPH,Gust SpeedMPH,PrecipitationIn,Events,Conditions,WindDirDegrees,DateUTC
12:15 AM,32.0,21.2,64,30.35,10.0,Calm,Calm,-,N/A,,Clear,0,2013-01-15 08:15:00
12:35 AM,32.0,23.0,69,30.36,10.0,Calm,Calm,-,N/A,,Clear,0,2013-01-15 08:35:00
12:55 AM,32.0,23.0,69,30.36,10.0,North,-9999.0,-,N/A,,Clear,0,2013-01-15 08:55:00
1:15 AM,32.0,21.2,64,30.38,10.0,Calm,Calm,-,N/A,,Clear,0,2013-01-15 09:15:00
1:55 AM,32.0,19.4,60,30.39,10.0,Calm,Calm,-,N/A,,Clear,0,2013-01-15 09:55:00
2:35 AM,30.2,21.2,69,30.39,10.0,Calm,Calm,-,N/A,,Clear,0,2013-01-15 10:35:00
2:55 AM,32.0,19.4,60,30.39,10.0,Calm,Calm,-,N/A,,Clear,0,2013-01-15 10:55:00
3:15 AM,32.0,19.4,60,30.40,10.0,Calm,Calm,-,N/A,,Clear,0,2013-01-15 11:15:00
3:35 AM,32.0,21.2,64,30.39,10.0,Calm,Calm,-,N/A,,Clear,0,2013-01-15 11:35:00
3:55 AM,32.0,21.2,64,30.39,10.0,Calm,Calm,-,N/A,,Clear,0,2013-01-15 11:55:00
4:15 AM,30.2,21.2,69,30.40,10.0,Calm,Calm,-,N/A,,Clear,0,2013-01-15 12:15:00
4:35 AM,30.2,21.2,69,30.40,10.0,Calm,Calm,-,N/A,,Clear,0,2013-01-15 12:35:00
4:55 AM,30.2,21.2,69,30.40,10.0,Calm,Calm,-,N/A,,Clear,0,2013-01-15 12:55:00
5:15 AM,28.4,21.2,74,30.40,10.0,Calm,Calm,-,N/A,,Clear,0,2013-01-15 13:15:00
7:50 AM,32.0,23.0,69,30.43,20.0,Calm,Calm,-,N/A,,Clear,0,2013-01-15 15:50:00
8:47 AM,39.2,19.4,45,30.46,20.0,Calm,Calm,-,N/A,,Clear,0,2013-01-15 16:47:00
1:47 PM,62.6,14.0,15,30.23,20.0,Variable,6.9,-,N/A,,Clear,0,2013-01-15 21:47:00
5:47 PM,48.2,30.2,50,30.37,12.0,Calm,Calm,-,N/A,,Clear,0,2013-01-16 01:47:00
8:15 PM,41.0,30.2,65,30.37,10.0,Calm,Calm,-,N/A,,Clear,0,2013-01-16 04:15:00
8:55 PM,39.2,30.2,70,30.37,10.0,Calm,Calm,-,N/A,,Clear,0,2013-01-16 04:55:00
9:15 PM,41.0,30.2,65,30.38,10.0,Calm,Calm,-,N/A,,Clear,0,2013-01-16 05:15:00
9:35 PM,39.2,30.2,70,30.38,10.0,Calm,Calm,-,N/A,,Clear,0,2013-01-16 05:35:00
9:55 PM,39.2,30.2,70,30.38,10.0,WNW,3.5,-,N/A,,Clear,300,2013-01-16 05:55:00
10:15 PM,37.4,30.2,75,30.38,10.0,Calm,Calm,-,N/A,,Clear,0,2013-01-16 06:15:00
10:35 PM,37.4,30.2,75,30.38,10.0,Calm,Calm,-,N/A,,Clear,0,2013-01-16 06:35:00
10:55 PM,37.4,30.2,75,30.38,10.0,Calm,Calm,-,N/A,,Clear,0,2013-01-16 06:55:00
11:15 PM,37.4,30.2,75,30.37,10.0,Calm,Calm,-,N/A,,Clear,0,2013-01-16 07:15:00
11:35 PM,35.6,30.2,81,30.37,10.0,Calm,Calm,-,N/A,,Clear,0,2013-01-16 07:35:00
11:55 PM,35.6,30.2,81,30.37,10.0,Calm,Calm,-,N/A,,Clear,0,2013-01-16 07:55:00